| time (UTC) | temp C | wind direction | speed KPH | gust KPH | rain 1hr cm | rain 24hr cm | rain mn cm | humidity % | barometer mb |
| 20260510094600 | 3 | 281 | 1.6 | 6.4 | 0.00 | 0.25 | 0.00 | 69 | 1009.8 |
| 20260510093057 | 3 | 281 | 1.6 | 4.8 | 0.00 | 0.25 | 0.00 | 69 | 1009.4 |
| 20260510091550 | 3 | 281 | 0.0 | 4.8 | 0.00 | 0.25 | 0.00 | 68 | 1009.2 |
| 20260510090048 | 3 | 282 | 1.6 | 6.4 | 0.00 | 0.25 | 0.00 | 69 | 1009.0 |
| 20260510084552 | 3 | 284 | 0.0 | 6.4 | 0.00 | 0.25 | 0.00 | 68 | 1009.1 |
| 20260510083043 | 3 | 284 | 1.6 | 4.8 | 0.00 | 0.25 | 0.00 | 68 | 1008.8 |
| 20260510081539 | 4 | 283 | 0.0 | 6.4 | 0.00 | 0.25 | 0.00 | 67 | 1008.8 |
| 20260510080037 | 4 | 284 | 1.6 | 8.0 | 0.00 | 0.25 | 0.00 | 67 | 1008.6 |
| 20260510074534 | 5 | 284 | 1.6 | 8.0 | 0.00 | 0.25 | 0.00 | 66 | 1008.4 |
| 20260510073035 | 5 | 284 | 1.6 | 14.5 | 0.00 | 0.25 | 0.00 | 65 | 1008.4 |
| 20260510071540 | 5 | 289 | 3.2 | 11.3 | 0.00 | 0.25 | 0.00 | 64 | 1008.2 |
| 20260510070028 | 6 | 303 | 3.2 | 12.9 | 0.00 | 0.25 | 0.00 | 62 | 1008.1 |
| 20260510064525 | 6 | 284 | 6.4 | 14.5 | 0.00 | 0.25 | 0.00 | 61 | 1008.0 |
| 20260510063015 | 7 | 262 | 3.2 | 12.9 | 0.00 | 0.25 | 0.00 | 61 | 1008.0 |
| 20260510061512 | 7 | 284 | 3.2 | 11.3 | 0.00 | 0.25 | 0.00 | 62 | 1007.7 |
| 20260510060009 | 7 | 289 | 1.6 | 6.4 | 0.00 | 0.25 | 0.00 | 64 | 1007.4 |
| 20260510054513 | 7 | 289 | 1.6 | 8.0 | 0.00 | 0.25 | 0.00 | 65 | 1007.2 |
| 20260510053004 | 7 | 289 | 0.0 | 11.3 | 0.00 | 0.25 | 0.00 | 65 | 1007.3 |
| 20260510051503 | 7 | 290 | 1.6 | 6.4 | 0.00 | 0.25 | 0.00 | 67 | 1007.2 |
| 20260510050101 | 7 | 290 | 1.6 | 6.4 | 0.00 | 0.25 | 0.00 | 67 | 1007.1 |
| 20260510044557 | 7 | 290 | 0.0 | 4.8 | 0.00 | 0.25 | 0.00 | 67 | 1006.8 |
| 20260510043100 | 7 | 290 | 0.0 | 4.8 | 0.00 | 0.25 | 0.00 | 69 | 1006.6 |
| 20260510041607 | 7 | 290 | 0.0 | 3.2 | 0.00 | 0.25 | 0.00 | 70 | 1006.4 |
| 20260510040045 | 7 | 290 | 0.0 | 1.6 | 0.00 | 0.25 | 0.00 | 70 | 1006.2 |
| 20260510034545 | 7 | 290 | 0.0 | 3.2 | 0.00 | 0.25 | 0.25 | 70 | 1006.1 |
| 20260510033043 | 8 | 290 | 0.0 | 6.4 | 0.00 | 0.25 | 0.25 | 71 | 1006.0 |
| 20260510031542 | 8 | 290 | 0.0 | 8.0 | 0.00 | 0.25 | 0.25 | 72 | 1005.8 |
| 20260510030048 | 9 | 291 | 0.0 | 3.2 | 0.00 | 0.25 | 0.25 | 74 | 1006.2 |
| 20260510024551 | 9 | 291 | 0.0 | 1.6 | 0.00 | 0.25 | 0.25 | 74 | 1005.9 |
| 20260510023039 | 10 | 292 | 1.6 | 8.0 | 0.00 | 0.25 | 0.25 | 75 | 1005.8 |
| 20260510021538 | 10 | 282 | 0.0 | 8.0 | 0.00 | 0.25 | 0.25 | 77 | 1005.5 |
| 20260510020046 | 10 | 284 | 1.6 | 14.5 | 0.00 | 0.25 | 0.25 | 79 | 1005.4 |
| 20260510014539 | 10 | 207 | 0.0 | 3.2 | 0.00 | 0.25 | 0.25 | 79 | 1004.7 |
| 20260510013036 | 10 | 207 | 0.0 | 3.2 | 0.00 | 0.25 | 0.25 | 79 | 1004.4 |
| 20260510011539 | 10 | 207 | 0.0 | 1.6 | 0.00 | 0.25 | 0.25 | 79 | 1004.0 |
| 20260510010051 | 10 | 207 | 0.0 | 4.8 | 0.00 | 0.25 | 0.25 | 79 | 1003.6 |
| 20260510004536 | 11 | 207 | 0.0 | 3.2 | 0.00 | 0.25 | 0.25 | 79 | 1003.4 |
| 20260510003034 | 11 | 207 | 0.0 | 4.8 | 0.00 | 0.25 | 0.25 | 78 | 1003.3 |
| 20260510001534 | 11 | 207 | 1.6 | 4.8 | 0.00 | 0.25 | 0.25 | 78 | 1003.0 |
| 20260510000034 | 11 | 206 | 0.0 | 4.8 | 0.00 | 0.25 | 0.25 | 78 | 1002.9 |
| 20260509234545 | 11 | 206 | 0.0 | 3.2 | 0.00 | 0.25 | 0.25 | 78 | 1002.7 |
| 20260509233032 | 11 | 206 | 0.0 | 8.0 | 0.00 | 0.25 | 0.25 | 78 | 1002.5 |
| 20260509231535 | 11 | 205 | 0.0 | 8.0 | 0.00 | 0.25 | 0.25 | 78 | 1002.2 |
| 20260509230031 | 11 | 217 | 1.6 | 9.7 | 0.05 | 0.25 | 0.25 | 78 | 1002.4 |
| 20260509224530 | 11 | 186 | 3.2 | 19.3 | 0.23 | 0.25 | 0.25 | 78 | 1002.3 |
| 20260509223028 | 11 | 217 | 0.0 | 4.8 | 0.25 | 0.25 | 0.25 | 79 | 1002.3 |
| 20260509221541 | 10 | 221 | 0.0 | 6.4 | 0.25 | 0.25 | 0.25 | 78 | 1002.6 |
| 20260509220030 | 10 | 109 | 0.0 | 4.8 | 0.18 | 0.18 | 0.18 | 77 | 1002.7 |
| 20260509214526 | 10 | 108 | 3.2 | 11.3 | 0.05 | 0.05 | 0.05 | 75 | 1002.5 |
| 20260509213027 | 11 | 136 | 4.8 | 11.3 | 0.00 | 0.00 | 0.00 | 73 | 1002.6 |
| 20260509211524 | 11 | 153 | 3.2 | 12.9 | 0.00 | 0.00 | 0.00 | 72 | 1002.9 |
| 20260509210024 | 11 | 123 | 4.8 | 17.7 | 0.00 | 0.00 | 0.00 | 72 | 1002.3 |
| 20260509204522 | 11 | 124 | 3.2 | 8.0 | 0.00 | 0.00 | 0.00 | 72 | 1002.1 |
| 20260509203019 | 11 | 153 | 3.2 | 14.5 | 0.00 | 0.00 | 0.00 | 72 | 1002.5 |
| 20260509201519 | 12 | 141 | 1.6 | 11.3 | 0.00 | 0.00 | 0.00 | 71 | 1002.6 |
| 20260509200019 | 11 | 137 | 6.4 | 16.1 | 0.00 | 0.00 | 0.00 | 71 | 1002.8 |
| 20260509194519 | 12 | 109 | 6.4 | 12.9 | 0.00 | 0.00 | 0.00 | 70 | 1002.9 |
| 20260509193015 | 13 | 142 | 4.8 | 12.9 | 0.00 | 0.00 | 0.00 | 68 | 1003.0 |
| 20260509191515 | 13 | 136 | 4.8 | 14.5 | 0.00 | 0.00 | 0.00 | 67 | 1003.3 |
| 20260509190018 | 14 | 148 | 4.8 | 19.3 | 0.00 | 0.00 | 0.00 | 66 | 1003.3 |
| 20260509184526 | 16 | 136 | 4.8 | 19.3 | 0.00 | 0.00 | 0.00 | 63 | 1003.3 |
| 20260509183017 | 15 | 152 | 4.8 | 14.5 | 0.00 | 0.00 | 0.00 | 64 | 1003.3 |
| 20260509181511 | 15 | 181 | 3.2 | 12.9 | 0.00 | 0.00 | 0.00 | 67 | 1003.4 |
| 20260509180007 | 15 | 128 | 4.8 | 12.9 | 0.00 | 0.00 | 0.00 | 67 | 1003.7 |
| 20260509174506 | 14 | 118 | 6.4 | 16.1 | 0.00 | 0.00 | 0.00 | 68 | 1003.8 |
| 20260509173007 | 15 | 124 | 3.2 | 12.9 | 0.00 | 0.00 | 0.00 | 68 | 1004.2 |
| 20260509171620 | 14 | 186 | 3.2 | 9.7 | 0.00 | 0.00 | 0.00 | 69 | 1004.7 |
| 20260509170056 | 13 | 117 | 3.2 | 9.7 | 0.00 | 0.00 | 0.00 | 71 | 1004.8 |
| 20260509164555 | 12 | 173 | 1.6 | 9.7 | 0.00 | 0.00 | 0.00 | 71 | 1005.0 |
| 20260509163057 | 12 | 201 | 3.2 | 11.3 | 0.00 | 0.00 | 0.00 | 72 | 1005.2 |
| 20260509161546 | 12 | 177 | 1.6 | 8.0 | 0.00 | 0.00 | 0.00 | 72 | 1005.3 |
| 20260509160045 | 11 | 196 | 1.6 | 9.7 | 0.00 | 0.00 | 0.00 | 74 | 1005.5 |
| 20260509154545 | 11 | 193 | 4.8 | 11.3 | 0.00 | 0.00 | 0.00 | 73 | 1005.8 |
| 20260509153044 | 11 | 192 | 3.2 | 14.5 | 0.00 | 0.00 | 0.00 | 72 | 1006.0 |
| 20260509151541 | 12 | 142 | 3.2 | 11.3 | 0.00 | 0.00 | 0.00 | 70 | 1005.8 |
| 20260509150041 | 12 | 134 | 3.2 | 12.9 | 0.00 | 0.00 | 0.00 | 70 | 1005.6 |
| 20260509144546 | 12 | 159 | 3.2 | 16.1 | 0.00 | 0.00 | 0.00 | 69 | 1005.8 |
| 20260509143036 | 12 | 183 | 1.6 | 9.7 | 0.00 | 0.00 | 0.00 | 68 | 1006.2 |
| 20260509141539 | 12 | 189 | 4.8 | 12.9 | 0.00 | 0.00 | 0.00 | 68 | 1006.3 |
| 20260509140035 | 11 | 103 | 3.2 | 11.3 | 0.00 | 0.00 | 0.00 | 68 | 1006.3 |
| 20260509134534 | 11 | 167 | 3.2 | 11.3 | 0.00 | 0.00 | 0.00 | 68 | 1006.2 |
| 20260509133030 | 11 | 114 | 4.8 | 12.9 | 0.00 | 0.00 | 0.00 | 67 | 1006.5 |
| 20260509131527 | 10 | 171 | 1.6 | 9.7 | 0.00 | 0.00 | 0.00 | 66 | 1006.6 |
| 20260509130037 | 9 | 187 | 1.6 | 6.4 | 0.00 | 0.00 | 0.00 | 64 | 1006.8 |
| 20260509124527 | 9 | 195 | 1.6 | 9.7 | 0.00 | 0.00 | 0.00 | 64 | 1006.7 |
| 20260509123024 | 8 | 198 | 1.6 | 8.0 | 0.00 | 0.00 | 0.00 | 63 | 1006.6 |
| 20260509121514 | 8 | 200 | 1.6 | 8.0 | 0.00 | 0.00 | 0.00 | 63 | 1006.4 |
| 20260509120006 | 7 | 203 | 1.6 | 4.8 | 0.00 | 0.00 | 0.00 | 64 | 1006.5 |
| 20260509114503 | 7 | 203 | 0.0 | 3.2 | 0.00 | 0.00 | 0.00 | 65 | 1006.6 |
| 20260509113104 | 6 | 203 | 0.0 | 4.8 | 0.00 | 0.00 | 0.00 | 66 | 1006.7 |
| 20260509111553 | 6 | 203 | 0.0 | 1.6 | 0.00 | 0.00 | 0.00 | 68 | 1006.7 |
| 20260509104553 | 3 | 203 | 0.0 | 1.6 | 0.00 | 0.00 | 0.00 | 73 | 1006.8 |
| 20260509103041 | 2 | 203 | 0.0 | 1.6 | 0.00 | 0.00 | 0.00 | 73 | 1006.7 |
| 20260509101540 | 2 | 203 | 0.0 | 3.2 | 0.00 | 0.00 | 0.00 | 73 | 1006.9 |
| 20260509100039 | 2 | 203 | 0.0 | 3.2 | 0.00 | 0.00 | 0.00 | 74 | 1006.9 |